SCP
0 -0 -0 -0 -0 -0 -0 -0 -0 -0 -0 0 0 0 0 0 0 0 0 0 0 0 0 0 0 0 -0 -0 -0 -0 -0 -0 -0 -0 -0 -0 -0 -0 0 0 0 0 0
0 -0 -0 -0 -0 -0 0 -0 -0 -0 -0 0 0 0 0 0 0 0 0 0 0 0 0 0 0 -0 -0 0 -0 -0 -0 -0 -0 -0 -0 -0 -0 -0 -0 -0 -0 -0 -0
0 0 -0 0 0 0 0 0 0 0 -0 -0 0 0 0 0 0 0 0 0 0 0 0 0 0 -0 -0 -0 -0 -0 -0 -0 -0 -0 0 0 -0 -0 -0 -0 0 0 -0
0 0 -0 0 0 0 0 0 0 0 0 0 0 0 0 0 0 0 0 0 0 0 0 0 0 0 0 0 0 0 -0 0 0 -0 0 0 -0 0 -0 0 0 0 0
0 0 0 0 0 0 0 0 0 0 0 0 0 0 0 0 0 0 0 0 0 0 0 0 0 0 0 0 0 0 0 0 0 0 0 0 0 0 0 0 0 0 0
0 0 0 0 0 0 0 0 0 0 0 0 0 0 0 0 0 0 0 0 0 0 0 0 0 0 0 0 0 0 0 0 0 0 0 0 0 0 0 0 0 0 0
0 0 0 0 0 0 0 0 0 0 0 0 0 0 0 0 0 0 0 0 0 0 0 0 0 0 0 0 0 0 0 0 0 0 0 0 0 0 0 0 0 0 0
0 0 0 0 0 0 0 0 0 0 0 0 0 0 0 0 0 0 0 0 0 0 0 0 0 0 0 0 0 0 0 0 0 0 0 0 0 0 0 0 0 0 0
0 0 0 0 0 0 0 0 0 0 0 0 0 0 0 0 0 0 0 0 0 0 0 0 0 0 0 0 0 0 0 0 0 0 0 0 0 0 0 0 0 0 0
0 0 0 0 0 0 0 0 0 0 0 0 0 0 0 0 0 0 0 0 0 0 0 0 0 0 0 0 0 0 0 0 -0 0 0 0 0 0 0 0 0 0 0
0 0 0 0 0 0 0 0 0 0 0 0 0 0 0 0 0 0 0 0 0 0 0 0 0 0 0 0 0 0 0 0 0 0 0 0 0 0 0 0 0 0 0
0 0 0 0 0 0 0 0 0 0 0 0 0 0 0 0 0 0 0 0 0 0 0 0 0 0 0 0 0 0 0 0 0 0 0 0 0 0 0 0 0 0 0
0 0 0 0 0 0 0 0 0 0 0 0 0 0 0 0 0 0 0 0 0 0 0 0 0 0 0 0 0 0 0 0 0 0 0 0 0 0 0 0 0 0 0
0 0 0 0 0 0 0 0 0 0 0 0 0 0 0 0 0 0 0 0 0 0 0 0 0 0 0 0 0 0 0 0 0 0 0 0 0 0 0 0 0 0 0
0 0 0 0 0 0 0 0 0 0 0 0 0 0 0 0 0 0 0 0 0 0 0 0 0 0 0 0 0 0 0 0 0 0 0 0 0 0 0 0 0 0 0
0 0 0 0 0 0 0 0 0 0 0 0 0 0 0 0 0 0 0 0 0 0 0 0 0 0 0 0 0 0 0 0 0 0 0 0 0 0 0 0 0 0 0
0 0 0 0 0 0 0 0 0 0 0 0 0 0 0 0 0 0 0 0 0 0 0 0 0 0 0 0 0 0 0 0 0 0 0 0 0 0 0 0 0 0 0
0 0 0 0 0 0 0 0 0 0 0 0 0 0 0 0 0 0 0 0 0 0 0 0 0 0 0 0 0 0 0 0 0 0 0 0 0 0 0 0 0 0 0
-0 0 0 0 0 0 0 0 0 0 0 0 0 0 0 0 0 0 0 0 0 0 0 0 0 0 0 0 0 0 0 0 0 0 0 0 0 0 0 0 0 0 0
-0 0 0 0 0 0 0 0 0 0 0 0 0 0 0 0 0 1 0 0 0 0 0 0 0 0 0 0 0 0 0 0 0 0 0 0 0 0 0 0 0 0 0
-0 -0 0 0 0 -0 -0 -0 0 0 0 0 0 0 0 0 0 0 0 0 0 0 0 0 0 0 0 0 0 0 0 0 0 0 0 0 0 0 0 0 0 0 0
0 0 0 0 0 0 -0 -0 -0 0 0 0 0 0 0 0 0 0 0 0 0 0 0 0 0 0 0 0 0 0 0 0 0 0 0 0 0 0 0 0 0 0 0
0 0 0 0 0 0 -0 -0 -0 -0 0 0 0 0 0 0 0 0 0 0 0 0 0 0 0 0 0 0 0 0 0 0 0 0 0 0 0 0 0 0 0 0 0
0 0 0 0 0 0 -0 -0 -0 -0 -0 -0 0 0 0 0 0 0 0 0 0 0 0 0 0 0 0 0 0 0 0 0 0 0 0 0 0 0 0 0 0 0 0
0 0 0 0 0 0 0 0 -0 -0 -0 -0 -0 -0 -0 0 0 0 0 0 0 0 0 0 0 0 0 0 0 0 0 0 0 0 0 0 0 0 0 0 0 0 0
0 0 0 0 0 0 0 0 -0 -0 -0 -0 -0 -0 -0 0 0 0 0 0 0 0 0 0 0 0 0 0 0 0 0 0 0 0 0 0 0 0 0 0 0 0 0
Wind_Speed_500mb
21 30 33 36 36 34 33 33 34 32 28 24 22 16 14 12 13 20 28 27 23 24 21 18 21 24 26 27 23 18 18 25 26 23 21 20 15 13 13 18 16 14 18
20 31 35 34 36 36 35 33 33 31 28 28 26 21 17 16 15 15 28 31 26 29 28 15 19 27 25 26 21 18 17 19 22 20 18 14 17 18 17 13 12 16 16
16 30 32 33 35 36 35 35 34 32 30 31 26 26 21 18 18 16 18 29 29 32 34 17 13 25 27 29 23 18 17 20 22 24 28 11 12 15 15 13 12 13 12
14 27 29 33 34 36 36 36 36 35 33 35 30 22 21 19 17 17 23 21 25 24 22 19 14 23 30 29 28 24 18 14 18 22 17 12 7 12 12 11 10 9 8
13 21 27 32 33 36 37 37 38 38 36 38 33 27 22 19 17 20 22 23 22 23 21 22 18 25 27 27 28 26 21 16 17 14 12 13 6 9 9 8 7 6 5
13 20 35 37 32 36 38 38 41 41 42 41 35 27 22 19 17 20 24 26 26 26 25 23 21 27 27 27 25 22 20 18 15 8 9 11 13 8 7 6 4 3 3
13 19 33 37 34 37 38 39 41 43 44 44 41 31 24 20 18 21 26 28 27 28 29 27 26 28 26 25 24 22 20 18 15 10 12 11 10 8 7 6 5 4 4
14 21 31 36 35 38 39 39 42 45 47 46 46 38 29 23 20 21 25 29 30 30 30 30 33 31 26 24 22 22 19 17 15 12 14 11 10 10 10 8 7 7 7
17 24 33 36 36 41 43 42 44 50 50 51 52 43 34 28 25 22 25 29 33 34 30 33 32 30 29 27 24 21 20 18 17 14 14 14 13 12 10 10 9 9 9
22 26 34 38 37 41 46 47 48 52 53 56 57 47 37 32 30 27 28 30 31 33 36 34 32 31 30 28 26 24 22 21 20 18 19 19 17 17 16 13 11 11 9
42 28 33 38 46 43 41 43 53 57 57 59 60 53 47 42 37 35 33 33 35 37 35 35 35 34 33 31 29 27 26 24 20 22 19 25 22 21 20 16 14 12 11
37 48 41 44 47 53 48 47 50 64 63 65 65 60 55 47 37 36 36 36 36 38 37 38 39 38 37 34 32 32 30 26 25 24 21 30 26 24 21 19 18 16 14
44 39 48 50 50 53 54 60 52 54 67 70 71 66 61 54 45 47 39 43 42 45 45 45 46 45 42 37 30 29 28 25 25 24 24 33 27 25 22 21 20 18 17
46 44 44 51 55 57 64 68 65 55 65 70 74 70 70 69 58 53 48 44 46 44 50 47 51 49 46 42 42 36 32 28 23 23 23 32 28 26 24 23 21 19 17
50 48 45 46 56 56 71 72 70 64 62 70 65 71 73 71 71 64 55 46 44 43 43 48 48 46 49 47 44 44 42 37 33 32 29 29 26 26 25 25 24 21 18
48 47 48 45 51 62 63 77 80 85 69 68 78 84 80 77 78 75 62 54 47 45 42 42 43 45 47 46 47 45 43 39 36 34 30 27 29 29 28 27 26 23 21
40 41 40 34 31 47 65 71 76 75 83 73 85 83 85 84 76 82 76 65 54 49 47 43 42 41 40 41 44 41 43 42 38 34 32 31 30 30 30 30 28 26 24
47 43 45 41 41 48 47 73 80 78 76 81 77 87 84 88 85 89 78 78 62 51 49 49 46 45 45 39 37 37 37 37 37 36 35 34 29 28 32 33 31 29 26
47 55 46 54 54 51 46 49 73 80 95 94 83 86 88 93 91 89 83 81 72 60 55 50 48 47 43 40 39 36 33 33 33 35 37 36 35 34 26 33 33 31 29
47 47 54 58 59 68 63 44 42 40 88 95 96 104 98 94 99 105 92 85 78 67 64 57 53 48 47 40 35 36 38 38 36 37 36 35 35 35 37 40 32 36 33
52 53 56 60 65 69 70 75 58 65 48 47 101 107 108 93 92 94 98 92 93 81 82 69 55 53 50 43 36 38 36 37 37 33 32 32 32 35 31 35 41 36 40
57 60 59 61 72 72 76 84 87 94 92 96 64 91 109 114 104 94 95 98 97 89 85 76 64 59 57 51 46 35 28 33 36 32 31 32 34 40 43 43 42 38 44
58 59 60 64 73 75 75 78 82 105 104 109 102 84 59 77 113 103 110 105 95 94 95 89 78 71 66 64 58 33 21 22 39 39 43 45 46 50 51 49 47 51 57
58 59 58 59 63 68 70 77 73 72 98 108 104 105 113 106 66 111 105 109 100 94 96 95 87 81 74 63 63 67 43 20 23 20 34 42 46 50 49 50 49 59 65
55 61 68 65 60 63 59 68 74 70 69 75 73 86 97 99 81 67 91 117 110 101 96 98 93 87 85 80 67 69 74 47 34 25 33 42 43 47 50 51 57 64 70
58 62 65 71 68 60 61 62 72 69 68 70 66 63 80 88 99 81 84 105 123 109 103 103 96 94 95 90 81 72 70 84 71 47 34 50 51 48 52 56 59 62 63
Wind_Direction_500mb
200 204 197 193 195 195 195 193 197 202 206 210 209 204 193 187 184 181 173 155 170 169 150 163 166 167 172 156 148 141 122 134 148 138 127 134 147 152 132 123 97 101 88
201 202 203 199 199 201 201 199 202 207 207 209 213 209 202 199 200 186 184 178 180 181 161 166 191 190 179 170 160 146 132 128 132 129 117 122 136 130 131 126 115 104 98
217 199 209 203 204 207 208 206 207 206 206 208 213 208 206 208 212 219 195 193 194 177 175 172 179 200 190 180 171 164 151 126 121 118 96 103 132 126 126 128 118 111 111
205 200 217 209 209 211 213 213 213 211 211 210 211 222 218 219 225 221 204 202 184 183 178 171 178 169 176 181 183 182 173 150 138 133 99 119 134 137 140 129 122 121 120
208 204 220 217 214 213 215 217 217 215 212 216 223 227 218 223 226 226 213 204 186 181 179 171 189 170 169 175 183 186 183 166 153 135 140 136 145 158 154 142 141 136 118
225 214 238 227 220 219 220 223 224 217 215 218 222 222 219 228 235 229 212 198 192 187 179 187 198 187 181 180 182 179 178 167 163 153 160 165 170 175 182 161 163 145 131
247 222 241 250 232 224 227 231 229 218 214 221 220 224 227 235 238 236 220 202 198 197 191 193 199 196 190 189 188 188 188 184 174 190 188 192 209 209 216 197 197 192 200
261 237 238 256 228 231 233 235 230 218 215 225 222 224 235 244 239 236 225 210 205 200 201 198 205 202 199 198 196 197 198 197 196 206 208 209 215 220 222 221 217 220 218
278 250 235 249 251 232 237 238 230 220 218 224 224 232 235 243 244 239 229 219 212 206 206 208 212 211 209 208 207 209 209 209 210 228 223 230 228 232 233 231 225 226 232
285 260 251 238 242 247 238 233 228 222 226 222 226 233 239 237 240 240 231 230 226 214 210 212 217 218 219 219 217 218 219 221 224 222 232 230 234 232 230 228 229 236 244
312 274 256 244 238 236 234 245 230 223 230 228 227 236 239 232 233 236 234 232 230 226 220 219 221 222 225 228 226 225 225 227 234 232 235 245 239 236 236 236 239 246 253
317 306 283 252 243 236 228 229 248 228 228 230 231 234 240 233 228 232 238 235 238 232 229 227 226 226 228 230 237 235 232 231 239 234 236 245 242 239 241 242 243 248 254
313 307 298 281 250 242 235 231 226 245 229 230 233 236 238 235 224 236 233 238 234 231 230 228 229 229 230 230 230 243 240 236 238 242 239 248 245 241 241 246 251 250 251
309 307 294 289 278 255 241 237 228 229 233 233 232 235 236 235 226 224 229 238 237 235 233 233 233 233 231 231 228 228 231 233 240 240 245 255 248 245 242 245 246 248 246
307 304 305 295 283 272 256 238 234 223 232 229 233 236 232 230 235 228 229 226 239 233 239 230 233 233 231 231 234 236 235 235 231 234 240 256 250 247 244 244 245 243 238
319 313 309 301 295 280 263 248 246 239 224 230 232 229 233 236 238 235 232 225 226 233 232 234 233 234 236 236 237 236 237 237 240 244 252 256 248 245 242 241 242 241 231
330 332 333 309 298 293 276 259 243 245 243 225 239 233 232 234 235 239 238 233 226 234 235 233 231 233 239 239 239 238 239 239 240 244 246 245 251 245 241 241 243 242 238
347 324 313 324 304 288 267 263 251 245 247 240 233 242 229 234 238 235 232 237 228 231 234 233 231 230 234 234 238 243 241 240 239 235 237 242 238 243 244 239 241 240 235
348 354 334 307 307 305 290 292 253 266 246 251 251 239 240 228 229 236 233 233 232 232 233 233 230 230 232 235 235 235 232 234 236 235 235 237 233 230 234 248 240 241 235
337 339 342 346 332 300 293 310 289 269 260 249 251 253 244 236 229 235 234 233 238 226 235 233 228 228 224 230 236 237 234 232 231 231 236 238 237 237 238 244 240 237 231
327 331 330 331 330 335 313 291 299 304 325 318 244 248 252 244 228 233 230 231 236 229 240 238 229 222 229 224 230 239 240 235 233 234 242 231 237 237 231 236 239 232 232
320 321 317 320 322 327 323 326 294 302 305 305 331 249 255 250 232 223 226 230 234 230 233 236 222 222 223 226 221 229 239 237 236 229 224 225 224 226 219 223 221 231 234
319 318 312 314 313 313 317 314 308 293 301 308 306 309 313 251 240 231 228 228 235 224 233 235 229 223 221 221 219 199 213 222 196 213 218 216 216 221 222 219 227 225 213
319 320 316 311 312 310 311 309 309 310 302 309 307 303 304 306 298 233 231 230 224 219 227 233 233 234 225 218 219 219 202 199 190 190 213 216 220 225 228 229 230 219 208
317 313 312 311 306 307 305 305 304 303 299 301 309 303 302 304 297 253 244 229 225 222 225 230 231 231 228 223 213 222 217 205 204 193 199 208 204 216 220 223 222 217 217
316 315 311 310 306 300 301 302 301 297 295 295 306 312 301 297 296 298 253 240 226 222 221 230 230 231 230 226 215 216 223 215 210 210 204 199 209 209 208 211 214 215 219
Wind_Speed_850mb
21 30 33 36 36 34 33 33 34 32 28 24 22 16 14 12 13 20 28 27 23 24 21 18 21 24 26 27 23 18 18 25 26 23 21 20 15 13 13 18 16 14 18
20 31 35 34 36 36 35 33 33 31 28 28 26 21 17 16 15 15 28 31 26 29 28 15 19 27 25 26 21 18 17 19 22 20 18 14 17 18 17 13 12 16 16
16 30 32 33 35 36 35 35 34 32 30 31 26 26 21 18 18 16 18 29 29 32 34 17 13 25 27 29 23 18 17 20 22 24 28 11 12 15 15 13 12 13 12
14 27 29 33 34 36 36 36 36 35 33 35 30 22 21 19 17 17 23 21 25 24 22 19 14 23 30 29 28 24 18 14 18 22 17 12 7 12 12 11 10 9 8
13 21 27 32 33 36 37 37 38 38 36 38 33 27 22 19 17 20 22 23 22 23 21 22 18 25 27 27 28 26 21 16 17 14 12 13 6 9 9 8 7 6 5
13 20 35 37 32 36 38 38 41 41 42 41 35 27 22 19 17 20 24 26 26 26 25 23 21 27 27 27 25 22 20 18 15 8 9 11 13 8 7 6 4 3 3
13 19 33 37 34 37 38 39 41 43 44 44 41 31 24 20 18 21 26 28 27 28 29 27 26 28 26 25 24 22 20 18 15 10 12 11 10 8 7 6 5 4 4
14 21 31 36 35 38 39 39 42 45 47 46 46 38 29 23 20 21 25 29 30 30 30 30 33 31 26 24 22 22 19 17 15 12 14 11 10 10 10 8 7 7 7
17 24 33 36 36 41 43 42 44 50 50 51 52 43 34 28 25 22 25 29 33 34 30 33 32 30 29 27 24 21 20 18 17 14 14 14 13 12 10 10 9 9 9
22 26 34 38 37 41 46 47 48 52 53 56 57 47 37 32 30 27 28 30 31 33 36 34 32 31 30 28 26 24 22 21 20 18 19 19 17 17 16 13 11 11 9
42 28 33 38 46 43 41 43 53 57 57 59 60 53 47 42 37 35 33 33 35 37 35 35 35 34 33 31 29 27 26 24 20 22 19 25 22 21 20 16 14 12 11
37 48 41 44 47 53 48 47 50 64 63 65 65 60 55 47 37 36 36 36 36 38 37 38 39 38 37 34 32 32 30 26 25 24 21 30 26 24 21 19 18 16 14
44 39 48 50 50 53 54 60 52 54 67 70 71 66 61 54 45 47 39 43 42 45 45 45 46 45 42 37 30 29 28 25 25 24 24 33 27 25 22 21 20 18 17
46 44 44 51 55 57 64 68 65 55 65 70 74 70 70 69 58 53 48 44 46 44 50 47 51 49 46 42 42 36 32 28 23 23 23 32 28 26 24 23 21 19 17
50 48 45 46 56 56 71 72 70 64 62 70 65 71 73 71 71 64 55 46 44 43 43 48 48 46 49 47 44 44 42 37 33 32 29 29 26 26 25 25 24 21 18
48 47 48 45 51 62 63 77 80 85 69 68 78 84 80 77 78 75 62 54 47 45 42 42 43 45 47 46 47 45 43 39 36 34 30 27 29 29 28 27 26 23 21
40 41 40 34 31 47 65 71 76 75 83 73 85 83 85 84 76 82 76 65 54 49 47 43 42 41 40 41 44 41 43 42 38 34 32 31 30 30 30 30 28 26 24
47 43 45 41 41 48 47 73 80 78 76 81 77 87 84 88 85 89 78 78 62 51 49 49 46 45 45 39 37 37 37 37 37 36 35 34 29 28 32 33 31 29 26
47 55 46 54 54 51 46 49 73 80 95 94 83 86 88 93 91 89 83 81 72 60 55 50 48 47 43 40 39 36 33 33 33 35 37 36 35 34 26 33 33 31 29
47 47 54 58 59 68 63 44 42 40 88 95 96 104 98 94 99 105 92 85 78 67 64 57 53 48 47 40 35 36 38 38 36 37 36 35 35 35 37 40 32 36 33
52 53 56 60 65 69 70 75 58 65 48 47 101 107 108 93 92 94 98 92 93 81 82 69 55 53 50 43 36 38 36 37 37 33 32 32 32 35 31 35 41 36 40
57 60 59 61 72 72 76 84 87 94 92 96 64 91 109 114 104 94 95 98 97 89 85 76 64 59 57 51 46 35 28 33 36 32 31 32 34 40 43 43 42 38 44
58 59 60 64 73 75 75 78 82 105 104 109 102 84 59 77 113 103 110 105 95 94 95 89 78 71 66 64 58 33 21 22 39 39 43 45 46 50 51 49 47 51 57
58 59 58 59 63 68 70 77 73 72 98 108 104 105 113 106 66 111 105 109 100 94 96 95 87 81 74 63 63 67 43 20 23 20 34 42 46 50 49 50 49 59 65
55 61 68 65 60 63 59 68 74 70 69 75 73 86 97 99 81 67 91 117 110 101 96 98 93 87 85 80 67 69 74 47 34 25 33 42 43 47 50 51 57 64 70
58 62 65 71 68 60 61 62 72 69 68 70 66 63 80 88 99 81 84 105 123 109 103 103 96 94 95 90 81 72 70 84 71 47 34 50 51 48 52 56 59 62 63
Wind_Direction_850mb
200 204 197 193 195 195 195 193 197 202 206 210 209 204 193 187 184 181 173 155 170 169 150 163 166 167 172 156 148 141 122 134 148 138 127 134 147 152 132 123 97 101 88
201 202 203 199 199 201 201 199 202 207 207 209 213 209 202 199 200 186 184 178 180 181 161 166 191 190 179 170 160 146 132 128 132 129 117 122 136 130 131 126 115 104 98
217 199 209 203 204 207 208 206 207 206 206 208 213 208 206 208 212 219 195 193 194 177 175 172 179 200 190 180 171 164 151 126 121 118 96 103 132 126 126 128 118 111 111
205 200 217 209 209 211 213 213 213 211 211 210 211 222 218 219 225 221 204 202 184 183 178 171 178 169 176 181 183 182 173 150 138 133 99 119 134 137 140 129 122 121 120
208 204 220 217 214 213 215 217 217 215 212 216 223 227 218 223 226 226 213 204 186 181 179 171 189 170 169 175 183 186 183 166 153 135 140 136 145 158 154 142 141 136 118
225 214 238 227 220 219 220 223 224 217 215 218 222 222 219 228 235 229 212 198 192 187 179 187 198 187 181 180 182 179 178 167 163 153 160 165 170 175 182 161 163 145 131
247 222 241 250 232 224 227 231 229 218 214 221 220 224 227 235 238 236 220 202 198 197 191 193 199 196 190 189 188 188 188 184 174 190 188 192 209 209 216 197 197 192 200
261 237 238 256 228 231 233 235 230 218 215 225 222 224 235 244 239 236 225 210 205 200 201 198 205 202 199 198 196 197 198 197 196 206 208 209 215 220 222 221 217 220 218
278 250 235 249 251 232 237 238 230 220 218 224 224 232 235 243 244 239 229 219 212 206 206 208 212 211 209 208 207 209 209 209 210 228 223 230 228 232 233 231 225 226 232
285 260 251 238 242 247 238 233 228 222 226 222 226 233 239 237 240 240 231 230 226 214 210 212 217 218 219 219 217 218 219 221 224 222 232 230 234 232 230 228 229 236 244
312 274 256 244 238 236 234 245 230 223 230 228 227 236 239 232 233 236 234 232 230 226 220 219 221 222 225 228 226 225 225 227 234 232 235 245 239 236 236 236 239 246 253
317 306 283 252 243 236 228 229 248 228 228 230 231 234 240 233 228 232 238 235 238 232 229 227 226 226 228 230 237 235 232 231 239 234 236 245 242 239 241 242 243 248 254
313 307 298 281 250 242 235 231 226 245 229 230 233 236 238 235 224 236 233 238 234 231 230 228 229 229 230 230 230 243 240 236 238 242 239 248 245 241 241 246 251 250 251
309 307 294 289 278 255 241 237 228 229 233 233 232 235 236 235 226 224 229 238 237 235 233 233 233 233 231 231 228 228 231 233 240 240 245 255 248 245 242 245 246 248 246
307 304 305 295 283 272 256 238 234 223 232 229 233 236 232 230 235 228 229 226 239 233 239 230 233 233 231 231 234 236 235 235 231 234 240 256 250 247 244 244 245 243 238
319 313 309 301 295 280 263 248 246 239 224 230 232 229 233 236 238 235 232 225 226 233 232 234 233 234 236 236 237 236 237 237 240 244 252 256 248 245 242 241 242 241 231
330 332 333 309 298 293 276 259 243 245 243 225 239 233 232 234 235 239 238 233 226 234 235 233 231 233 239 239 239 238 239 239 240 244 246 245 251 245 241 241 243 242 238
347 324 313 324 304 288 267 263 251 245 247 240 233 242 229 234 238 235 232 237 228 231 234 233 231 230 234 234 238 243 241 240 239 235 237 242 238 243 244 239 241 240 235
348 354 334 307 307 305 290 292 253 266 246 251 251 239 240 228 229 236 233 233 232 232 233 233 230 230 232 235 235 235 232 234 236 235 235 237 233 230 234 248 240 241 235
337 339 342 346 332 300 293 310 289 269 260 249 251 253 244 236 229 235 234 233 238 226 235 233 228 228 224 230 236 237 234 232 231 231 236 238 237 237 238 244 240 237 231
327 331 330 331 330 335 313 291 299 304 325 318 244 248 252 244 228 233 230 231 236 229 240 238 229 222 229 224 230 239 240 235 233 234 242 231 237 237 231 236 239 232 232
320 321 317 320 322 327 323 326 294 302 305 305 331 249 255 250 232 223 226 230 234 230 233 236 222 222 223 226 221 229 239 237 236 229 224 225 224 226 219 223 221 231 234
319 318 312 314 313 313 317 314 308 293 301 308 306 309 313 251 240 231 228 228 235 224 233 235 229 223 221 221 219 199 213 222 196 213 218 216 216 221 222 219 227 225 213
319 320 316 311 312 310 311 309 309 310 302 309 307 303 304 306 298 233 231 230 224 219 227 233 233 234 225 218 219 219 202 199 190 190 213 216 220 225 228 229 230 219 208
317 313 312 311 306 307 305 305 304 303 299 301 309 303 302 304 297 253 244 229 225 222 225 230 231 231 228 223 213 222 217 205 204 193 199 208 204 216 220 223 222 217 217
316 315 311 310 306 300 301 302 301 297 295 295 306 312 301 297 296 298 253 240 226 222 221 230 230 231 230 226 215 216 223 215 210 210 204 199 209 209 208 211 214 215 219